ARG1482 SAEZ-SASA

Flight info

Callsign ARG1482
Flight time 1h 51m
Altitude 32000
Route BIVAM1E BIVAM UW8 ERE UT672 DADMI UT677 ILPAR
Aircraft B738/M-SDE2E3FGHIRWXY/LB1

Departure

Time 2026-04-27 16:25
Airport Ezeiza International Airport - Ministro Pistarini (SAEZ)

Arrival

Time 2026-04-27 18:16
Airport Martín Miguel de Güemes International Airport (SASA)
Time Latitude Longitude Altitude Speed Heading
2026-04-27 15:47 -34.81676 -58.54160 74 ft 0 kts 12°
2026-04-27 16:12 -34.81681 -58.54162 60 ft 2 kts 12°
2026-04-27 16:12 -34.81713 -58.54171 64 ft 2 kts 14°
2026-04-27 16:13 -34.81729 -58.54175 67 ft 2 kts 15°
2026-04-27 16:13 -34.81761 -58.54187 67 ft 2 kts 24°
2026-04-27 16:13 -34.81773 -58.54200 67 ft 2 kts 67°
2026-04-27 16:14 -34.81777 -58.54231 65 ft 1 kts 95°
2026-04-27 16:17 -34.81779 -58.54215 64 ft 4 kts 98°
2026-04-27 16:17 -34.81791 -58.54068 67 ft 12 kts 85°
2026-04-27 16:18 -34.81707 -58.53853 69 ft 15 kts 72°
2026-04-27 16:18 -34.81821 -58.53679 72 ft 14 kts 156°
2026-04-27 16:19 -34.81900 -58.53615 72 ft 14 kts 128°
2026-04-27 16:19 -34.81930 -58.53506 74 ft 14 kts 103°
2026-04-27 16:20 -34.81987 -58.53220 73 ft 13 kts 104°
2026-04-27 16:20 -34.82007 -58.53118 73 ft 12 kts 103°
2026-04-27 16:20 -34.82049 -58.52911 80 ft 14 kts 106°
2026-04-27 16:21 -34.82077 -58.52770 76 ft 20 kts 104°
2026-04-27 16:21 -34.82195 -58.52177 74 ft 28 kts 103°
2026-04-27 16:22 -34.82238 -58.51963 74 ft 19 kts 104°
2026-04-27 16:22 -34.82320 -58.51788 67 ft 7 kts 180°
2026-04-27 16:22 -34.82363 -58.51799 67 ft 6 kts 194°
2026-04-27 16:23 -34.82407 -58.51811 72 ft 6 kts 192°
2026-04-27 16:23 -34.82489 -58.51841 81 ft 6 kts 203°
2026-04-27 16:23 -34.82521 -58.51886 84 ft 9 kts 253°
2026-04-27 16:24 -34.82515 -58.51939 80 ft 0 kts 284°
2026-04-27 16:25 -34.82420 -58.52473 76 ft 107 kts 282°
2026-04-27 16:25 -34.81981 -58.55177 1136 ft 188 kts 277°
2026-04-27 16:26 -34.81548 -58.58482 3040 ft 202 kts 266°
2026-04-27 16:26 -34.82041 -58.61664 4552 ft 214 kts 243°
2026-04-27 16:27 -34.83709 -58.64931 5982 ft 233 kts 234°
2026-04-27 16:27 -34.87410 -58.68800 8510 ft 246 kts 215°
2026-04-27 16:28 -34.90763 -58.70079 9887 ft 279 kts 182°
2026-04-27 16:28 -34.94482 -58.67706 10556 ft 342 kts 140°
2026-04-27 16:29 -34.96409 -58.58984 12328 ft 391 kts 75°
2026-04-27 16:30 -34.93474 -58.53526 13672 ft 395 kts 33°
2026-04-27 16:30 -34.88462 -58.51686 14938 ft 372 kts 346°
2026-04-27 16:31 -34.80954 -58.53681 17003 ft 381 kts 345°
2026-04-27 16:31 -34.75552 -58.53955 18333 ft 392 kts 347°
2026-04-27 16:32 -34.70040 -58.54111 19438 ft 399 kts 347°
2026-04-27 16:32 -34.67255 -58.54203 19983 ft 402 kts 347°
2026-04-27 16:33 -34.61656 -58.54418 21036 ft 408 kts 347°
2026-04-27 16:33 -34.58808 -58.54535 21543 ft 411 kts 347°
2026-04-27 16:33 -34.55934 -58.54656 22066 ft 414 kts 347°
2026-04-27 16:33 -34.53042 -58.54777 22579 ft 417 kts 347°
2026-04-27 16:34 -34.50123 -58.54900 23072 ft 421 kts 347°
2026-04-27 16:34 -34.47190 -58.55055 23554 ft 420 kts 343°
2026-04-27 16:34 -34.44369 -58.55732 23949 ft 405 kts 330°
2026-04-27 16:34 -34.41807 -58.57030 24384 ft 394 kts 322°
2026-04-27 16:35 -34.39489 -58.58731 24783 ft 385 kts 313°
2026-04-27 16:35 -34.37374 -58.60715 25156 ft 386 kts 312°
2026-04-27 16:35 -34.33138 -58.64709 25918 ft 391 kts 312°
2026-04-27 16:36 -34.30973 -58.66730 26278 ft 394 kts 313°
2026-04-27 16:36 -34.28788 -58.68761 26615 ft 397 kts 313°
2026-04-27 16:36 -34.26583 -58.70803 26940 ft 400 kts 313°
2026-04-27 16:36 -34.24362 -58.72855 27283 ft 403 kts 313°
2026-04-27 16:37 -34.22129 -58.74916 27627 ft 405 kts 313°
2026-04-27 16:37 -34.19878 -58.76992 27954 ft 408 kts 313°
2026-04-27 16:37 -34.17621 -58.79073 28349 ft 408 kts 313°
2026-04-27 16:37 -34.15367 -58.81138 28892 ft 406 kts 314°
2026-04-27 16:38 -34.12976 -58.83019 29376 ft 411 kts 319°
2026-04-27 16:38 -34.10524 -58.84802 29796 ft 412 kts 319°
2026-04-27 16:38 -34.08093 -58.86554 30207 ft 412 kts 319°
2026-04-27 16:38 -34.05616 -58.88343 30653 ft 408 kts 319°
2026-04-27 16:39 -34.03222 -58.90083 31125 ft 405 kts 319°
2026-04-27 16:39 -34.00823 -58.91836 31545 ft 402 kts 318°
2026-04-27 16:39 -33.98432 -58.93584 31929 ft 401 kts 318°
2026-04-27 16:39 -33.96043 -58.95332 32095 ft 403 kts 318°
2026-04-27 16:40 -33.93645 -58.97087 32115 ft 403 kts 318°
2026-04-27 16:40 -33.88788 -59.00645 32130 ft 413 kts 319°
2026-04-27 16:41 -33.83829 -59.04273 32132 ft 423 kts 319°
2026-04-27 16:41 -33.78737 -59.07986 32135 ft 431 kts 319°
2026-04-27 16:42 -33.73572 -59.11740 32123 ft 434 kts 319°
2026-04-27 16:42 -33.68394 -59.15496 32130 ft 434 kts 319°
2026-04-27 16:43 -33.63216 -59.19251 32127 ft 434 kts 319°
2026-04-27 16:43 -33.58046 -59.22997 32135 ft 433 kts 319°
2026-04-27 16:44 -33.52916 -59.26710 32134 ft 433 kts 319°
2026-04-27 16:44 -33.47729 -59.30460 32134 ft 432 kts 319°
2026-04-27 16:45 -33.42615 -59.34151 32138 ft 431 kts 319°
2026-04-27 16:45 -33.37475 -59.37857 32150 ft 431 kts 319°
2026-04-27 16:46 -33.32340 -59.41554 32147 ft 431 kts 319°
2026-04-27 16:46 -33.27202 -59.45247 32159 ft 431 kts 319°
2026-04-27 16:47 -33.22068 -59.48933 32152 ft 430 kts 320°
2026-04-27 16:47 -33.16931 -59.52615 32158 ft 430 kts 320°
2026-04-27 16:48 -33.11797 -59.56290 32158 ft 430 kts 320°
2026-04-27 16:48 -33.06690 -59.59941 32164 ft 430 kts 320°
2026-04-27 16:49 -32.98992 -59.65435 32163 ft 430 kts 320°
2026-04-27 16:49 -32.93857 -59.69093 32169 ft 430 kts 320°
2026-04-27 16:50 -32.88754 -59.72724 32168 ft 430 kts 320°
2026-04-27 16:50 -32.83611 -59.76378 32177 ft 430 kts 320°
2026-04-27 16:51 -32.78479 -59.80020 32176 ft 430 kts 320°
2026-04-27 16:51 -32.73339 -59.83662 32174 ft 429 kts 320°
2026-04-27 16:52 -32.68239 -59.87272 32179 ft 429 kts 320°
2026-04-27 16:52 -32.63104 -59.90902 32183 ft 429 kts 320°
2026-04-27 16:53 -32.57962 -59.94530 32181 ft 429 kts 320°
2026-04-27 16:53 -32.52834 -59.98147 32187 ft 429 kts 320°
2026-04-27 16:54 -32.47706 -60.01760 32193 ft 428 kts 320°
2026-04-27 16:54 -32.42579 -60.05371 31982 ft 430 kts 323°
2026-04-27 16:55 -32.37410 -60.09009 32133 ft 438 kts 323°
2026-04-27 16:55 -32.32103 -60.12738 32195 ft 449 kts 323°
2026-04-27 16:56 -32.26670 -60.16548 32207 ft 459 kts 323°
2026-04-27 16:56 -32.21119 -60.20432 32205 ft 468 kts 323°
2026-04-27 16:57 -32.15484 -60.24368 32197 ft 472 kts 324°
2026-04-27 16:57 -32.09831 -60.28310 32191 ft 473 kts 324°
2026-04-27 16:58 -32.04163 -60.32259 32196 ft 473 kts 324°
2026-04-27 16:58 -31.98530 -60.36179 32199 ft 473 kts 324°
2026-04-27 16:59 -31.92857 -60.40122 32207 ft 473 kts 324°
2026-04-27 16:59 -31.87186 -60.44058 32209 ft 472 kts 324°
2026-04-27 17:00 -31.78704 -60.49980 32201 ft 471 kts 323°
2026-04-27 17:01 -31.73234 -60.54146 32215 ft 470 kts 321°
2026-04-27 17:01 -31.67766 -60.58388 32209 ft 471 kts 322°
2026-04-27 17:02 -31.62277 -60.62601 32205 ft 471 kts 322°
2026-04-27 17:02 -31.56806 -60.66763 32206 ft 471 kts 322°
2026-04-27 17:03 -31.51287 -60.70949 32211 ft 472 kts 322°
2026-04-27 17:03 -31.45765 -60.75131 32210 ft 472 kts 322°
2026-04-27 17:04 -31.40239 -60.79312 32214 ft 472 kts 322°
2026-04-27 17:04 -31.34748 -60.83461 32213 ft 472 kts 322°
2026-04-27 17:05 -31.29213 -60.87637 32221 ft 473 kts 322°
2026-04-27 17:05 -31.23682 -60.91804 32215 ft 473 kts 322°
2026-04-27 17:06 -31.18150 -60.95967 32217 ft 473 kts 323°
2026-04-27 17:06 -31.12644 -61.00104 32220 ft 473 kts 323°
2026-04-27 17:07 -31.07111 -61.04257 32218 ft 472 kts 323°
2026-04-27 17:07 -31.01579 -61.08401 32220 ft 472 kts 323°
2026-04-27 17:08 -30.96974 -61.11835 32221 ft 472 kts 323°
2026-04-27 17:08 -30.91447 -61.15952 32217 ft 471 kts 323°
2026-04-27 17:09 -30.85921 -61.20064 32213 ft 471 kts 323°
2026-04-27 17:09 -30.80399 -61.24170 32220 ft 471 kts 323°
2026-04-27 17:10 -30.74878 -61.28269 32214 ft 470 kts 323°
2026-04-27 17:10 -30.69395 -61.32333 32221 ft 469 kts 323°
2026-04-27 17:11 -30.63894 -61.36406 32221 ft 468 kts 323°
2026-04-27 17:11 -30.55657 -61.42494 32228 ft 467 kts 323°
2026-04-27 17:12 -30.47435 -61.48559 32226 ft 466 kts 323°
2026-04-27 17:13 -30.42002 -61.52559 32225 ft 465 kts 323°
2026-04-27 17:13 -30.36541 -61.56575 32226 ft 464 kts 323°
2026-04-27 17:14 -30.31082 -61.60585 32224 ft 463 kts 323°
2026-04-27 17:14 -30.25631 -61.64583 32223 ft 463 kts 323°
2026-04-27 17:15 -30.20225 -61.68542 32223 ft 462 kts 323°
2026-04-27 17:15 -30.14799 -61.72511 32226 ft 461 kts 323°
2026-04-27 17:16 -30.09370 -61.76478 32228 ft 460 kts 323°
2026-04-27 17:16 -30.03964 -61.80422 32226 ft 459 kts 323°
2026-04-27 17:17 -29.98592 -61.84337 32227 ft 458 kts 322°
2026-04-27 17:17 -29.93210 -61.88255 32226 ft 456 kts 322°
2026-04-27 17:18 -29.85133 -61.93984 32227 ft 457 kts 325°
2026-04-27 17:18 -29.79526 -61.97446 32228 ft 457 kts 327°
2026-04-27 17:19 -29.73906 -62.00842 32229 ft 455 kts 326°
2026-04-27 17:19 -29.68318 -62.04249 32229 ft 454 kts 326°
2026-04-27 17:20 -29.62740 -62.07673 32227 ft 452 kts 326°
2026-04-27 17:20 -29.57233 -62.11058 32226 ft 451 kts 326°
2026-04-27 17:21 -29.51702 -62.14453 32231 ft 450 kts 326°
2026-04-27 17:21 -29.46185 -62.17834 32230 ft 449 kts 326°
2026-04-27 17:22 -29.40677 -62.21205 32232 ft 448 kts 326°
2026-04-27 17:22 -29.35177 -62.24566 32230 ft 447 kts 326°
2026-04-27 17:23 -29.29727 -62.27893 32229 ft 446 kts 326°
2026-04-27 17:23 -29.24248 -62.31233 32232 ft 445 kts 325°
2026-04-27 17:24 -29.18783 -62.34561 32234 ft 444 kts 325°
2026-04-27 17:24 -29.13332 -62.37877 32233 ft 443 kts 325°
2026-04-27 17:25 -29.07879 -62.41189 32235 ft 442 kts 325°
2026-04-27 17:25 -29.02483 -62.44463 32235 ft 442 kts 325°
2026-04-27 17:26 -28.97051 -62.47756 32235 ft 441 kts 325°
2026-04-27 17:26 -28.91625 -62.51041 32236 ft 441 kts 325°
2026-04-27 17:27 -28.86240 -62.54297 32235 ft 440 kts 325°
2026-04-27 17:27 -28.81012 -62.57849 32243 ft 432 kts 317°
2026-04-27 17:28 -28.76175 -62.61899 32230 ft 431 kts 317°
2026-04-27 17:29 -28.68959 -62.67942 32235 ft 430 kts 317°
2026-04-27 17:29 -28.64117 -62.71964 32237 ft 430 kts 317°
2026-04-27 17:30 -28.59267 -62.75979 32237 ft 429 kts 317°
2026-04-27 17:30 -28.52023 -62.81964 32237 ft 428 kts 317°
2026-04-27 17:31 -28.47236 -62.85913 32238 ft 427 kts 317°
2026-04-27 17:31 -28.42419 -62.89883 32236 ft 427 kts 317°
2026-04-27 17:32 -28.35220 -62.95808 32237 ft 425 kts 316°
2026-04-27 17:33 -28.30427 -62.99747 32241 ft 425 kts 316°
2026-04-27 17:33 -28.25675 -63.03649 32230 ft 424 kts 316°
2026-04-27 17:34 -28.20893 -63.07570 32238 ft 423 kts 316°
2026-04-27 17:34 -28.16121 -63.11479 32233 ft 422 kts 316°
2026-04-27 17:35 -28.11367 -63.15369 32233 ft 422 kts 316°
2026-04-27 17:35 -28.06607 -63.19258 32232 ft 421 kts 316°
2026-04-27 17:36 -28.01861 -63.23133 32231 ft 420 kts 316°
2026-04-27 17:36 -27.97140 -63.26979 32641 ft 412 kts 316°
2026-04-27 17:36 -27.94826 -63.28858 33070 ft 406 kts 315°
2026-04-27 17:37 -27.92552 -63.30705 33517 ft 399 kts 315°
2026-04-27 17:37 -27.90313 -63.32525 33977 ft 393 kts 315°
2026-04-27 17:37 -27.88128 -63.34302 34211 ft 393 kts 315°
2026-04-27 17:38 -27.83642 -63.37965 34229 ft 401 kts 315°
2026-04-27 17:38 -27.79080 -63.41680 34239 ft 407 kts 315°
2026-04-27 17:39 -27.74483 -63.45408 34234 ft 409 kts 315°
2026-04-27 17:39 -27.69846 -63.49161 34231 ft 410 kts 315°
2026-04-27 17:40 -27.65215 -63.52907 34228 ft 409 kts 315°
2026-04-27 17:40 -27.60607 -63.56632 34226 ft 409 kts 315°
2026-04-27 17:41 -27.55982 -63.60367 34221 ft 408 kts 315°
2026-04-27 17:41 -27.51366 -63.64092 34223 ft 408 kts 315°
2026-04-27 17:42 -27.46756 -63.67808 34224 ft 407 kts 315°
2026-04-27 17:42 -27.42138 -63.71526 34222 ft 407 kts 315°
2026-04-27 17:43 -27.37526 -63.75236 34224 ft 407 kts 315°
2026-04-27 17:43 -27.32941 -63.78921 34236 ft 407 kts 315°
2026-04-27 17:44 -27.28323 -63.82628 34221 ft 408 kts 315°
2026-04-27 17:44 -27.23701 -63.86333 34220 ft 408 kts 315°
2026-04-27 17:45 -27.19071 -63.90042 34220 ft 409 kts 315°
2026-04-27 17:45 -27.14437 -63.93751 34220 ft 409 kts 315°
2026-04-27 17:46 -27.09798 -63.97459 34222 ft 410 kts 315°
2026-04-27 17:46 -27.05148 -64.01173 34220 ft 410 kts 315°
2026-04-27 17:47 -27.00496 -64.04885 34220 ft 411 kts 315°
2026-04-27 17:47 -26.95834 -64.08603 34216 ft 411 kts 315°
2026-04-27 17:48 -26.91195 -64.12349 34218 ft 411 kts 315°
2026-04-27 17:48 -26.86589 -64.16084 34221 ft 411 kts 315°
2026-04-27 17:49 -26.81947 -64.19842 34215 ft 412 kts 315°
2026-04-27 17:49 -26.77294 -64.23602 34213 ft 412 kts 315°
2026-04-27 17:50 -26.72634 -64.27361 34215 ft 413 kts 315°
2026-04-27 17:50 -26.65630 -64.33005 34215 ft 413 kts 315°
2026-04-27 17:51 -26.60987 -64.36740 34216 ft 414 kts 315°
2026-04-27 17:51 -26.56308 -64.40501 34212 ft 414 kts 315°
2026-04-27 17:52 -26.51626 -64.44261 34213 ft 415 kts 315°
2026-04-27 17:52 -26.47728 -64.47389 34207 ft 415 kts 315°
2026-04-27 17:53 -26.44631 -64.49864 34194 ft 400 kts 315°
2026-04-27 17:53 -26.42403 -64.51634 34191 ft 385 kts 315°
2026-04-27 17:53 -26.38111 -64.55069 34184 ft 381 kts 315°
2026-04-27 17:54 -26.35951 -64.56806 33856 ft 381 kts 315°
2026-04-27 17:54 -26.33813 -64.58517 33444 ft 376 kts 315°
2026-04-27 17:54 -26.31707 -64.60199 33070 ft 370 kts 315°
2026-04-27 17:54 -26.29626 -64.61862 32644 ft 367 kts 315°
2026-04-27 17:55 -26.27561 -64.63511 32228 ft 363 kts 315°
2026-04-27 17:55 -26.25517 -64.65143 31823 ft 360 kts 315°
2026-04-27 17:55 -26.23490 -64.66762 31418 ft 357 kts 315°
2026-04-27 17:55 -26.21480 -64.68366 31023 ft 354 kts 315°
2026-04-27 17:56 -26.19486 -64.69956 30628 ft 351 kts 315°
2026-04-27 17:56 -26.17503 -64.71536 30219 ft 348 kts 314°
2026-04-27 17:56 -26.15539 -64.73101 29775 ft 346 kts 315°
2026-04-27 17:56 -26.14250 -64.74128 29482 ft 343 kts 315°
2026-04-27 17:57 -26.12312 -64.75670 29070 ft 340 kts 315°
2026-04-27 17:57 -26.09779 -64.77685 28520 ft 335 kts 315°
2026-04-27 17:57 -26.08502 -64.78700 28252 ft 333 kts 315°
2026-04-27 17:57 -26.06626 -64.80192 27851 ft 330 kts 315°
2026-04-27 17:58 -26.04161 -64.82152 27314 ft 327 kts 314°
2026-04-27 17:58 -26.02918 -64.83138 27083 ft 324 kts 315°
2026-04-27 17:58 -26.01087 -64.84593 26688 ft 323 kts 315°
2026-04-27 17:58 -25.99261 -64.86044 26316 ft 321 kts 315°
2026-04-27 17:59 -25.97459 -64.87477 25938 ft 324 kts 315°
2026-04-27 17:59 -25.95593 -64.88966 25575 ft 337 kts 315°
2026-04-27 17:59 -25.93668 -64.90502 25140 ft 343 kts 316°
2026-04-27 17:59 -25.91722 -64.92042 24730 ft 342 kts 316°
2026-04-27 18:00 -25.89783 -64.93573 24309 ft 342 kts 316°
2026-04-27 18:00 -25.87853 -64.95097 23903 ft 340 kts 316°
2026-04-27 18:00 -25.85927 -64.96619 23439 ft 339 kts 316°
2026-04-27 18:00 -25.84013 -64.98132 23007 ft 336 kts 316°
2026-04-27 18:01 -25.82111 -64.99635 22592 ft 334 kts 316°
2026-04-27 18:01 -25.80224 -65.01127 22187 ft 331 kts 316°
2026-04-27 18:01 -25.78353 -65.02606 21788 ft 329 kts 316°
2026-04-27 18:01 -25.76493 -65.04077 21401 ft 327 kts 317°
2026-04-27 18:02 -25.74663 -65.05523 21014 ft 325 kts 317°
2026-04-27 18:02 -25.72820 -65.06978 20637 ft 324 kts 317°
2026-04-27 18:02 -25.70983 -65.08423 20242 ft 324 kts 319°
2026-04-27 18:02 -25.69016 -65.09687 19754 ft 332 kts 328°
2026-04-27 18:03 -25.66835 -65.10667 19261 ft 339 kts 332°
2026-04-27 18:03 -25.64615 -65.11597 18794 ft 341 kts 332°
2026-04-27 18:03 -25.62403 -65.12515 18413 ft 339 kts 333°
2026-04-27 18:03 -25.60204 -65.13434 17985 ft 336 kts 333°
2026-04-27 18:04 -25.58051 -65.14338 17609 ft 333 kts 333°
2026-04-27 18:04 -25.55891 -65.15253 17217 ft 331 kts 333°
2026-04-27 18:04 -25.53745 -65.16165 16886 ft 329 kts 333°
2026-04-27 18:04 -25.51601 -65.17079 16494 ft 330 kts 333°
2026-04-27 18:05 -25.49464 -65.17991 16115 ft 327 kts 333°
2026-04-27 18:05 -25.47342 -65.18895 15759 ft 327 kts 334°
2026-04-27 18:05 -25.45224 -65.19797 15389 ft 326 kts 334°
2026-04-27 18:05 -25.43106 -65.20699 15035 ft 326 kts 334°
2026-04-27 18:06 -25.40989 -65.21601 14660 ft 326 kts 334°
2026-04-27 18:06 -25.38900 -65.22489 14293 ft 326 kts 334°
2026-04-27 18:06 -25.36784 -65.23389 13906 ft 326 kts 335°
2026-04-27 18:06 -25.34666 -65.24290 13516 ft 325 kts 335°
2026-04-27 18:07 -25.32553 -65.25188 13131 ft 324 kts 336°
2026-04-27 18:07 -25.30453 -65.26080 12760 ft 322 kts 336°
2026-04-27 18:07 -25.28365 -65.26966 12404 ft 320 kts 336°
2026-04-27 18:07 -25.26292 -65.27846 12036 ft 318 kts 336°
2026-04-27 18:08 -25.24228 -65.28721 11673 ft 316 kts 337°
2026-04-27 18:08 -25.22252 -65.29747 11308 ft 312 kts 323°
2026-04-27 18:08 -25.20751 -65.31439 11004 ft 308 kts 304°
2026-04-27 18:08 -25.19832 -65.33560 10709 ft 305 kts 291°
2026-04-27 18:09 -25.19121 -65.35755 10454 ft 301 kts 291°
2026-04-27 18:09 -25.18422 -65.37928 10112 ft 300 kts 292°
2026-04-27 18:09 -25.17712 -65.40090 9786 ft 299 kts 292°
2026-04-27 18:09 -25.16994 -65.42243 9406 ft 299 kts 293°
2026-04-27 18:10 -25.15929 -65.44170 9032 ft 290 kts 315°
2026-04-27 18:10 -25.14394 -65.45462 8760 ft 276 kts 330°
2026-04-27 18:10 -25.12766 -65.46514 8483 ft 266 kts 331°
2026-04-27 18:10 -25.11192 -65.47514 8243 ft 255 kts 331°
2026-04-27 18:11 -25.09708 -65.48465 8015 ft 239 kts 331°
2026-04-27 18:11 -25.08314 -65.49367 7776 ft 225 kts 331°
2026-04-27 18:11 -25.07005 -65.50214 7554 ft 211 kts 331°
2026-04-27 18:11 -25.05763 -65.51021 7348 ft 203 kts 331°
2026-04-27 18:12 -25.04574 -65.51795 7146 ft 194 kts 331°
2026-04-27 18:12 -25.03358 -65.52177 6933 ft 175 kts
2026-04-27 18:12 -25.02210 -65.52034 6776 ft 161 kts
2026-04-27 18:12 -25.00963 -65.51926 6751 ft 194 kts
2026-04-27 18:13 -24.99634 -65.51706 6583 ft 190 kts 11°
2026-04-27 18:13 -24.98387 -65.51440 6384 ft 174 kts 12°
2026-04-27 18:13 -24.97236 -65.51186 6119 ft 162 kts 12°
2026-04-27 18:13 -24.96172 -65.50951 5915 ft 155 kts 13°
2026-04-27 18:14 -24.95133 -65.50722 5717 ft 152 kts 13°
2026-04-27 18:14 -24.94079 -65.50489 5509 ft 156 kts 13°
2026-04-27 18:14 -24.93016 -65.50255 5290 ft 155 kts 13°
2026-04-27 18:14 -24.91958 -65.50022 5074 ft 154 kts 13°
2026-04-27 18:15 -24.90919 -65.49795 4890 ft 151 kts 14°
2026-04-27 18:15 -24.89894 -65.49569 4690 ft 149 kts 14°
2026-04-27 18:15 -24.88883 -65.49346 4476 ft 147 kts 14°
2026-04-27 18:15 -24.87890 -65.49123 4241 ft 147 kts 14°
2026-04-27 18:16 -24.86901 -65.48908 4007 ft 140 kts 13°
2026-04-27 18:16 -24.86068 -65.48723 4018 ft 101 kts 12°
2026-04-27 18:16 -24.85524 -65.48608 4018 ft 58 kts 10°
2026-04-27 18:16 -24.85275 -65.48556 4016 ft 15 kts 11°
2026-04-27 18:17 -24.85179 -65.48535 4016 ft 14 kts 11°
2026-04-27 18:17 -24.85086 -65.48516 4016 ft 14 kts 11°
2026-04-27 18:17 -24.84986 -65.48495 4017 ft 14 kts 11°
2026-04-27 18:17 -24.84890 -65.48475 4017 ft 14 kts 11°
2026-04-27 18:18 -24.84794 -65.48454 4017 ft 15 kts 11°
2026-04-27 18:18 -24.84695 -65.48411 4016 ft 16 kts 41°
2026-04-27 18:18 -24.84613 -65.48322 4016 ft 16 kts 55°
2026-04-27 18:18 -24.84574 -65.48211 4016 ft 12 kts 72°
2026-04-27 18:19 -24.84547 -65.48119 4016 ft 13 kts 72°
2026-04-27 18:19 -24.84520 -65.48029 4016 ft 12 kts 72°
2026-04-27 18:19 -24.84501 -65.47959 4016 ft 8 kts 83°
2026-04-27 18:19 -24.84503 -65.47919 4016 ft 2 kts 71°
2026-04-27 18:20 -24.84488 -65.47907 4016 ft 3 kts 27°
2026-04-27 18:20 -24.84470 -65.47899 4016 ft 0 kts 23°